Wind_Speed
17 17 17 17 17 16 16 15 13 12 11 9 8 7 7 7 6 6 6 6 6 6 7 7 7 8 8 8 9 9 10 10 12 13 14 14 14 15 15 15 15 15 14
17 18 18 18 18 18 18 17 16 15 13 11 10 10 9 9 8 7 7 7 8 8 8 8 9 9 9 9 10 11 11 11 12 13 14 15 15 15 16 16 17 17 16
17 18 18 19 19 20 19 19 18 17 15 14 13 12 11 11 10 9 9 9 9 9 9 10 10 10 10 11 11 12 12 13 13 13 14 15 16 16 16 17 17 18 18
18 18 18 19 20 20 20 20 20 19 18 17 15 14 13 13 12 11 11 10 10 10 10 10 11 11 12 12 13 14 15 15 15 16 16 16 17 17 17 18 18 19 19
21 20 19 20 20 21 21 21 22 21 21 20 18 17 16 14 14 13 13 12 12 12 12 12 12 13 14 15 15 16 16 17 18 18 18 18 18 19 19 19 18 19 20
22 22 21 20 21 21 21 22 23 23 23 22 21 21 20 18 16 16 16 15 15 14 14 14 14 15 15 16 17 18 18 19 20 21 21 21 21 21 21 20 19 20 21
24 24 22 21 21 21 21 23 23 24 24 23 23 23 23 21 20 19 18 17 18 17 16 16 17 17 17 18 18 19 20 21 21 22 23 23 23 23 23 23 22 22 21
27 25 24 23 23 22 22 23 25 26 26 26 25 25 24 24 23 22 20 19 19 20 20 20 20 19 19 20 20 20 21 22 23 23 24 25 25 25 25 25 25 24 24
29 28 26 25 24 23 23 22 25 27 27 27 28 27 27 27 25 24 23 21 21 22 22 21 21 21 22 22 22 22 23 23 24 24 25 25 26 26 26 27 27 27 26
32 31 29 27 25 24 24 24 24 26 27 27 28 29 29 28 27 26 25 24 23 23 23 22 22 23 24 24 24 24 24 25 25 26 26 26 26 26 27 27 28 27 27
32 31 31 29 28 26 26 26 26 26 27 28 29 30 30 30 30 28 28 27 26 25 24 23 22 22 23 24 24 24 24 25 26 26 26 27 27 27 27 28 28 28 28
33 30 29 28 28 28 28 28 26 26 27 27 29 30 31 30 30 29 29 29 27 27 26 25 23 23 23 23 24 25 25 25 26 27 27 27 28 28 28 28 29 29 29
32 31 30 30 30 30 29 29 29 29 29 28 28 29 31 31 32 30 29 28 28 27 27 26 25 23 23 23 23 24 25 25 25 27 28 27 28 28 28 28 29 29 29
31 31 30 30 29 29 29 30 30 30 30 30 29 30 30 30 31 30 29 28 27 26 26 26 25 24 23 23 23 24 24 25 25 26 27 28 28 28 28 29 29 30 30
30 31 30 30 29 29 30 29 30 31 31 30 29 29 29 29 30 29 28 27 26 25 25 25 24 24 23 23 24 24 25 25 25 26 26 27 28 28 28 29 29 30 30
29 29 29 28 29 28 26 27 28 27 27 26 26 26 26 27 27 26 25 25 24 24 25 25 24 24 23 24 24 24 25 25 26 26 26 26 27 27 28 28 29 29 30
25 24 24 25 24 24 23 23 24 24 25 25 24 25 25 26 25 24 23 23 23 23 24 24 24 23 23 24 24 24 24 25 26 26 26 26 26 27 27 28 29 29 29
19 19 19 20 20 20 20 21 21 22 23 24 24 23 23 23 22 22 22 22 22 22 23 24 23 23 23 23 23 23 23 24 25 25 26 26 27 27 28 29 29 29 30
13 14 14 14 14 14 15 16 17 17 18 19 19 19 19 19 20 21 22 22 23 22 23 23 23 23 23 22 23 23 23 23 23 24 26 27 28 28 28 28 28 29 29
7 8 8 9 9 10 11 13 14 14 15 16 17 18 18 19 20 21 21 22 23 23 23 23 23 23 22 22 22 23 23 23 23 24 24 25 25 27 28 28 28 28 28
4 6 7 8 9 11 12 13 15 16 16 16 17 18 18 19 20 21 21 22 22 22 22 22 23 23 22 23 23 23 23 23 23 23 23 24 24 25 26 27 27 28 28
6 7 9 10 12 13 14 15 16 17 18 18 19 19 19 19 20 21 21 21 21 21 21 22 22 22 22 22 22 22 22 22 23 23 23 22 23 23 24 25 27 28 29
8 8 9 11 13 14 15 17 18 19 20 20 20 20 20 20 20 20 19 20 19 19 20 20 20 20 20 21 21 21 21 21 22 21 21 21 21 21 22 23 25 27 28
10 11 11 12 14 15 16 17 18 19 20 20 20 20 20 20 19 19 19 18 18 18 18 18 18 19 19 19 19 19 20 20 20 20 20 20 20 21 21 21 22 24 26
11 11 12 13 14 15 16 16 17 17 18 19 19 19 19 19 18 18 17 17 17 17 17 17 16 17 17 17 17 17 18 18 19 19 19 19 19 19 21 21 22 22 23
12 12 12 13 13 14 15 15 16 16 16 16 17 17 17 17 17 16 16 15 15 15 15 15 15 14 15 15 15 15 15 16 17 17 17 17 17 18 18 19 20 21 22
Wind_Direction
278 280 280 279 278 277 279 282 287 291 295 295 292 293 294 294 289 280 277 276 274 270 267 267 270 273 271 268 263 259 256 254 253 250 244 239 238 238 240 239 239 239 240
274 276 277 277 274 272 273 274 278 281 286 288 287 286 286 285 286 284 281 281 280 276 272 270 271 272 272 271 268 262 258 256 256 254 247 243 241 241 242 241 241 241 241
271 271 275 276 274 272 271 271 275 277 278 280 279 278 277 280 282 283 282 282 282 279 276 274 273 272 272 271 270 266 263 259 256 255 252 248 247 246 246 245 244 243 243
271 268 268 271 271 271 270 270 271 272 275 276 276 274 273 277 279 280 281 281 280 280 280 279 276 274 272 271 269 267 264 261 258 258 257 255 254 251 250 248 247 246 244
274 270 267 265 265 266 266 266 268 270 272 274 275 273 271 271 274 279 281 281 280 279 280 279 277 275 274 271 269 267 264 262 259 258 257 256 255 255 255 252 251 249 246
272 270 268 266 264 264 263 263 264 266 269 272 272 271 270 269 271 276 279 281 280 281 280 280 279 276 274 272 270 268 266 263 262 260 258 257 257 257 257 255 254 252 249
269 267 267 265 265 265 263 262 262 264 266 269 269 268 268 268 268 271 274 276 279 282 283 282 280 279 276 275 273 271 268 266 264 262 261 259 258 258 257 255 255 255 254
266 263 264 265 264 264 265 264 261 261 265 266 264 264 265 266 266 267 268 269 273 279 283 283 283 282 278 276 274 273 270 267 266 264 263 261 259 258 257 255 254 254 254
264 261 262 263 262 262 265 267 264 262 265 265 262 259 261 262 261 263 266 267 268 273 278 280 281 281 280 278 276 273 269 266 265 264 263 262 260 259 258 255 255 254 254
266 264 262 261 262 263 264 268 268 267 263 263 261 257 257 259 259 260 264 267 268 270 272 274 276 278 280 281 279 275 271 267 265 264 263 262 261 259 258 256 255 255 254
267 268 268 263 265 265 265 271 270 269 267 264 262 257 254 255 257 258 262 264 267 269 270 271 270 274 276 279 279 276 273 269 266 264 262 261 261 260 259 257 255 254 253
269 268 269 268 270 271 270 271 269 268 267 265 262 257 252 252 253 254 257 261 264 268 271 271 270 271 272 276 278 277 275 271 267 265 263 261 261 260 259 258 256 254 253
269 271 273 272 271 268 270 270 270 267 266 263 258 254 251 251 250 251 253 258 262 265 267 270 271 272 273 275 276 276 275 273 269 266 264 262 261 260 259 258 257 255 254
270 272 272 272 271 270 269 270 268 265 263 259 255 253 251 250 249 249 251 255 258 261 264 266 268 270 271 273 275 275 276 275 272 268 264 262 261 260 259 258 257 256 255
269 271 270 269 268 268 267 267 264 261 257 255 254 251 249 250 248 246 248 253 256 258 261 263 265 267 268 270 274 275 275 274 273 270 265 264 263 261 260 258 258 257 256
268 266 267 268 266 265 265 264 262 258 257 255 253 251 250 248 244 244 248 251 253 257 259 262 264 265 267 268 271 273 274 273 271 270 266 265 263 262 260 259 258 257 256
266 266 266 267 265 264 263 261 256 254 255 252 249 248 247 244 242 243 249 253 256 258 259 262 262 263 265 266 268 272 273 273 271 269 267 266 264 261 260 260 259 258 257
263 263 263 263 264 263 260 255 251 249 251 249 249 248 247 246 246 249 253 256 258 260 261 262 263 264 265 265 266 268 270 272 271 270 267 267 265 262 260 261 259 259 258
261 258 259 260 259 257 255 256 254 253 253 253 252 250 250 250 252 253 255 257 260 261 261 263 264 265 265 264 265 266 268 271 273 271 269 267 267 263 261 260 259 259 259
258 257 256 256 253 253 253 257 257 257 258 256 255 255 255 254 255 256 257 259 261 262 262 263 264 264 265 265 265 266 267 269 272 273 270 269 268 263 261 259 259 259 258
283 277 264 261 260 257 259 261 262 264 264 262 261 261 260 259 259 259 259 260 261 262 263 264 264 265 265 265 265 266 266 266 270 273 273 270 268 265 261 258 258 258 260
294 287 277 273 270 268 267 267 267 267 267 266 265 263 262 261 262 262 261 261 261 263 264 265 266 266 267 267 266 267 267 267 268 272 275 272 268 266 263 260 258 259 260
313 301 291 285 280 277 274 273 271 270 268 267 266 265 263 264 264 263 263 263 263 264 266 267 268 269 269 268 269 269 269 270 270 270 274 274 270 270 270 266 260 259 259
325 314 306 297 290 287 284 280 276 271 268 266 264 263 262 262 263 264 264 264 264 265 268 268 269 269 269 270 270 270 271 270 270 271 271 273 273 269 270 270 268 264 262
340 328 318 309 301 295 291 287 280 274 269 264 261 260 260 261 263 263 263 263 264 265 267 269 270 271 270 269 269 270 269 269 270 272 273 272 274 272 271 272 272 270 269
356 344 333 322 314 306 300 293 285 278 271 265 261 259 258 258 260 260 261 261 261 264 266 266 268 271 271 270 269 269 271 273 274 274 275 276 277 278 277 276 276 275 273
Height
5905 5904 5904 5904 5903 5903 5903 5902 5902 5901 5901 5901 5901 5900 5899 5899 5898 5898 5898 5898 5898 5898 5898 5898 5898 5898 5898 5898 5899 5899 5899 5900 5901 5902 5902 5903 5905 5906 5907 5908 5909 5910 5911
5902 5901 5900 5900 5900 5900 5900 5899 5899 5899 5898 5898 5898 5898 5897 5897 5897 5897 5896 5896 5896 5896 5896 5896 5896 5896 5896 5896 5897 5897 5897 5898 5898 5899 5900 5901 5902 5903 5904 5905 5906 5907 5908
5899 5898 5896 5896 5895 5896 5896 5896 5895 5896 5896 5896 5896 5896 5896 5895 5895 5895 5894 5894 5894 5894 5894 5894 5894 5894 5894 5894 5894 5895 5895 5895 5896 5896 5897 5898 5899 5900 5901 5902 5903 5904 5905
5894 5894 5893 5892 5891 5891 5891 5892 5892 5892 5892 5893 5893 5893 5893 5892 5892 5892 5892 5891 5891 5891 5892 5892 5891 5891 5891 5892 5892 5892 5892 5893 5893 5893 5894 5895 5895 5896 5897 5898 5899 5900 5901
5888 5888 5888 5888 5887 5887 5887 5888 5888 5888 5888 5889 5889 5889 5889 5889 5889 5888 5888 5889 5889 5889 5889 5889 5889 5888 5888 5888 5888 5888 5889 5889 5889 5890 5890 5891 5892 5892 5893 5894 5895 5896 5897
5883 5882 5882 5882 5882 5882 5883 5883 5883 5884 5884 5884 5884 5884 5885 5885 5886 5885 5885 5885 5885 5885 5886 5885 5885 5885 5885 5884 5884 5884 5885 5885 5885 5885 5886 5887 5887 5888 5889 5890 5890 5891 5892
5877 5876 5876 5876 5876 5876 5877 5877 5878 5878 5879 5879 5879 5879 5880 5880 5881 5881 5881 5881 5881 5881 5881 5882 5882 5881 5881 5880 5880 5880 5880 5880 5881 5881 5881 5882 5882 5883 5884 5885 5886 5887 5888
5870 5870 5869 5870 5870 5870 5870 5871 5871 5872 5873 5873 5873 5874 5875 5876 5876 5876 5877 5877 5877 5876 5877 5877 5877 5877 5876 5876 5875 5875 5875 5875 5875 5876 5876 5876 5877 5878 5878 5879 5880 5881 5882
5862 5862 5862 5863 5863 5864 5864 5864 5865 5865 5866 5866 5867 5868 5869 5869 5870 5871 5871 5872 5873 5873 5872 5872 5872 5871 5871 5870 5870 5870 5870 5870 5870 5870 5870 5870 5871 5872 5872 5873 5874 5875 5876
5853 5854 5854 5855 5856 5856 5856 5857 5857 5858 5858 5859 5859 5861 5862 5863 5864 5865 5866 5866 5867 5867 5868 5868 5867 5866 5865 5864 5864 5864 5864 5864 5864 5864 5864 5864 5865 5865 5866 5867 5868 5869 5870
5844 5845 5846 5847 5848 5848 5848 5849 5849 5850 5851 5851 5852 5853 5854 5856 5857 5858 5859 5860 5860 5861 5862 5862 5862 5862 5860 5859 5858 5858 5858 5858 5858 5858 5858 5858 5859 5859 5860 5861 5862 5863 5864
5836 5837 5838 5838 5839 5839 5840 5841 5841 5842 5843 5843 5844 5845 5847 5848 5850 5851 5852 5853 5853 5854 5855 5855 5856 5856 5855 5854 5853 5852 5852 5852 5852 5851 5851 5852 5852 5853 5853 5854 5855 5856 5857
5828 5829 5829 5830 5831 5831 5831 5832 5833 5833 5835 5836 5837 5838 5839 5840 5842 5844 5845 5845 5847 5848 5848 5848 5848 5849 5848 5848 5847 5846 5846 5846 5845 5845 5845 5845 5846 5846 5847 5847 5848 5849 5850
5821 5821 5821 5822 5822 5822 5823 5823 5824 5825 5826 5827 5828 5829 5830 5832 5834 5835 5837 5839 5840 5841 5842 5842 5841 5842 5841 5841 5841 5840 5840 5839 5839 5839 5839 5839 5839 5840 5840 5841 5841 5842 5843
5813 5813 5813 5814 5814 5814 5815 5815 5815 5816 5817 5818 5820 5821 5822 5824 5826 5828 5830 5832 5833 5834 5835 5835 5835 5835 5835 5835 5835 5834 5834 5833 5833 5832 5832 5832 5832 5833 5833 5834 5834 5835 5836
5805 5806 5805 5806 5806 5807 5807 5807 5808 5808 5809 5810 5812 5813 5814 5816 5818 5820 5822 5824 5825 5827 5827 5828 5829 5829 5829 5829 5828 5828 5827 5827 5827 5826 5826 5826 5826 5826 5826 5827 5827 5828 5829
5798 5798 5799 5799 5800 5800 5800 5801 5801 5802 5803 5804 5805 5806 5807 5809 5811 5813 5815 5817 5818 5820 5820 5821 5822 5822 5823 5822 5822 5821 5820 5820 5820 5819 5819 5819 5819 5819 5819 5820 5820 5821 5822
5792 5792 5793 5793 5794 5794 5794 5794 5794 5795 5796 5797 5798 5800 5801 5803 5805 5807 5808 5810 5812 5813 5814 5814 5815 5816 5816 5816 5815 5815 5814 5814 5813 5813 5813 5813 5812 5813 5813 5813 5814 5814 5815
5787 5788 5788 5788 5789 5789 5789 5789 5790 5790 5791 5792 5793 5794 5795 5797 5799 5800 5802 5804 5805 5806 5807 5807 5808 5808 5809 5809 5809 5809 5808 5808 5807 5807 5806 5806 5805 5805 5806 5806 5806 5807 5808
5785 5785 5785 5785 5785 5785 5785 5785 5786 5787 5787 5788 5788 5789 5790 5792 5793 5795 5796 5797 5798 5799 5800 5800 5801 5802 5802 5802 5802 5802 5802 5802 5801 5800 5800 5799 5798 5798 5799 5799 5800 5800 5801
5783 5783 5782 5782 5782 5782 5782 5782 5782 5782 5782 5783 5784 5784 5785 5786 5787 5789 5790 5791 5792 5793 5793 5794 5795 5795 5795 5796 5796 5796 5796 5795 5795 5794 5793 5792 5792 5791 5791 5792 5792 5793 5794
5782 5781 5781 5780 5780 5779 5778 5778 5778 5778 5778 5778 5779 5779 5780 5781 5782 5783 5784 5785 5786 5787 5787 5788 5789 5789 5789 5789 5789 5789 5789 5789 5789 5789 5787 5786 5786 5785 5785 5785 5785 5786 5786
5780 5779 5778 5777 5776 5775 5774 5773 5773 5773 5773 5773 5773 5773 5774 5775 5776 5777 5778 5779 5780 5781 5782 5782 5783 5783 5783 5783 5783 5783 5783 5783 5782 5782 5782 5781 5780 5779 5779 5778 5778 5778 5778
5778 5776 5775 5773 5772 5770 5769 5768 5767 5767 5767 5767 5767 5768 5769 5770 5771 5772 5773 5774 5775 5776 5776 5777 5777 5777 5778 5778 5778 5778 5777 5777 5777 5776 5776 5775 5774 5773 5773 5772 5772 5771 5771
5776 5774 5772 5770 5768 5766 5764 5763 5762 5761 5761 5761 5761 5762 5763 5765 5766 5767 5768 5769 5770 5771 5771 5772 5772 5772 5772 5772 5772 5772 5772 5772 5772 5771 5770 5770 5769 5768 5767 5767 5766 5765 5764
5775 5772 5770 5767 5764 5762 5760 5758 5757 5756 5755 5755 5756 5757 5758 5760 5761 5763 5764 5765 5766 5767 5767 5768 5768 5768 5768 5768 5768 5768 5767 5767 5767 5766 5766 5765 5764 5763 5762 5761 5760 5759 5758